Weather past 2 weeks in Mamoutzou, Mayotte

Now
86 °F

Scattered clouds.


Feels Like: 93 °F
Forecast: 79 / 83 °F
Wind: 10 mph from South

Location: Dzaoudzi / Pamanzi Mayotte


UV Index: 7 (High)

Visibility: N/A


Pressure: 29.95 "Hg

Humidity: 66%

Dew point: 73 °F

Location of MamoutzouLocation

Historic Weather in Mamoutzou

°F

Mamoutzou temperature yesterday

Maximum temperature yesterday: 88 °F (at 12:00 PM)
Minimum temperature yesterday: 77 °F (at 12:00 AM)
Average temperature yesterday: 82 °F

Past Weeks' High & Low Weather Summary

 TemperatureHumidityPressure
High90 °F (Apr 7, 2:00 PM)94% (Apr 2, 1:00 AM)30.01 "Hg (Apr 2, 1:00 AM)
Low75 °F (Apr 2, 1:00 AM)55% (Apr 4, 1:30 PM)29.83 "Hg (Apr 1, 2:00 PM)
Average82 °F74%29.90 "Hg
* Reported Apr 1 9:00 AM — Apr 16 9:00 AM, Mamoutzou, Weather by CustomWeather, © 2014

Note: Actual official high and low records may vary slightly from our data, if they occured in-between our weather recording intervals... More about our weather records

Advertising

Historic Weather Conditions — Data for Previous 24 hours

 ConditionsComfort  
Time TempWeatherWind HumidityBarometerVisibility
9:00 AM
Apr 16
86 °FScattered clouds.10 mph62%29.95 "HgN/A
8:30 AM86 °FPassing clouds.9 mph62%29.95 "HgN/A
8:00 AM84 °FPassing clouds.9 mph66%29.92 "HgN/A
7:30 AM82 °FPassing clouds.7 mph70%29.92 "HgN/A
7:00 AM81 °FPassing clouds.7 mph79%29.92 "HgN/A
6:30 AM79 °FPassing clouds.7 mph84%29.92 "HgN/A
6:00 AM79 °FPassing clouds.7 mph79%29.92 "HgN/A
5:30 AM79 °FPassing clouds.6 mph84%29.89 "HgN/A
5:00 AM79 °FPassing clouds.6 mph84%29.89 "HgN/A
4:30 AM79 °FWarm.5 mph84%29.89 "HgN/A
4:00 AM79 °FPassing clouds.3 mph84%29.89 "HgN/A
3:00 AM79 °FPassing clouds.3 mph84%29.89 "HgN/A
2:00 AM79 °FPassing clouds.5 mph84%29.89 "HgN/A
1:00 AM79 °FPassing clouds.3 mph84%29.92 "HgN/A
12:30 AM79 °FPassing clouds.5 mph84%29.92 "HgN/A
12:00 AM81 °FPassing clouds.6 mph79%29.92 "HgN/A
11:30 PM
Apr 15
81 °FPassing clouds.6 mph79%29.92 "HgN/A
11:00 PM81 °FPassing clouds.5 mph79%29.92 "HgN/A
10:30 PM81 °FPassing clouds.6 mph79%29.95 "HgN/A
10:00 PM81 °FWarm.8 mph79%29.95 "HgN/A
9:30 PM81 °FPassing clouds.6 mph79%29.92 "HgN/A
9:00 PM81 °FPassing clouds.8 mph74%29.92 "HgN/A
8:30 PM81 °FPassing clouds.7 mph74%29.92 "HgN/A
8:00 PM82 °FPassing clouds.7 mph70%29.92 "HgN/A
7:30 PM81 °FPassing clouds.7 mph79%29.89 "HgN/A
7:00 PM82 °FPassing clouds.7 mph70%29.89 "HgN/A
6:30 PM82 °FWarm.7 mph74%29.89 "HgN/A
6:00 PM82 °FPassing clouds.7 mph74%29.89 "HgN/A
5:30 PM84 °FScattered clouds.7 mph66%29.89 "HgN/A
5:00 PM84 °FScattered clouds.7 mph66%29.86 "HgN/A
4:00 PM86 °FScattered clouds.9 mph66%29.86 "HgN/A
3:30 PM86 °FScattered clouds.8 mph62%29.86 "HgN/A
3:00 PM86 °FScattered clouds.8 mph66%29.86 "HgN/A
2:30 PM86 °FScattered clouds.8 mph62%29.86 "HgN/A
2:00 PM88 °FScattered clouds.10 mph62%29.86 "HgN/A
1:30 PM86 °FPassing clouds.9 mph66%29.89 "HgN/A
12:30 PM88 °FPassing clouds.9 mph62%29.89 "HgN/A
12:00 PM88 °FPassing clouds.9 mph62%29.89 "HgN/A
11:30 AM86 °FPassing clouds.9 mph62%29.92 "HgN/A
11:00 AM86 °FScattered clouds.10 mph66%29.92 "HgN/A
10:00 AM86 °FPassing clouds.10 mph66%29.92 "HgN/A
Weather by CustomWeather, © 2014

See weather overview